This is the latest recevied weather packets stored in our database for station/object K5IDL. If no packets are shown the sender has not sent any weather packets the latest 1 day(s).
| Time | Temp. | Humidity | Pressure | Rain* | Wind** | Luminosity | Snow |
|---|---|---|---|---|---|---|---|
| 1777985291 | 22.78° C | 83% | 1005.3 hPa | 0 mm | 0 m/s | 35 W/m² | - |
| 1777984988 | 22.78° C | 83% | 1005.4 hPa | 0 mm | 0 m/s | 24 W/m² | - |
| 1777984684 | 22.78° C | 83% | 1005.4 hPa | 0 mm | 0.45 m/s, 97° | 26 W/m² | - |
| 1777984381 | 22.78° C | 83% | 1004.9 hPa | 0 mm | 0.45 m/s, 322° | 26 W/m² | - |
| 1777984077 | 22.78° C | 83% | 1004.9 hPa | 0 mm | 0.45 m/s, 338° | 18 W/m² | - |
| 1777983775 | 22.78° C | 83% | 1004.7 hPa | 0 mm | 0.89 m/s, 206° | 13 W/m² | - |
| 1777983471 | 22.78° C | 82% | 1005 hPa | 0 mm | 0.45 m/s, 270° | 10 W/m² | - |
| 1777983168 | 22.78° C | 82% | 1004.8 hPa | 0 mm | 0.45 m/s, 34° | 8 W/m² | - |
| 1777982864 | 22.78° C | 82% | 1004.9 hPa | 0 mm | 0.45 m/s, 301° | 7 W/m² | - |
| 1777982560 | 22.78° C | 83% | 1004.8 hPa | 0 mm | 0.45 m/s, 18° | 8 W/m² | - |
| 1777982259 | 22.78° C | 83% | 1004.8 hPa | 0 mm | 0.89 m/s, 50° | 4 W/m² | - |
| 1777981957 | 22.78° C | 83% | 1005 hPa | 0 mm | 1.79 m/s, 172° | 3 W/m² | - |
| 1777981654 | 22.78° C | 83% | 1004.7 hPa | 0 mm | 0 m/s | 3 W/m² | - |
| 1777981359 | 22.78° C | 82% | 1004.7 hPa | 0 mm | 0 m/s | 1 W/m² | - |
| 1777981047 | 22.78° C | 82% | 1004.7 hPa | 0 mm | 0.89 m/s, 274° | 1 W/m² | - |
| 1777980743 | 22.78° C | 82% | 1004.6 hPa | 0 mm | 0.45 m/s, 274° | 0 W/m² | - |
| 1777980440 | 22.78° C | 82% | 1004.6 hPa | 0 mm | 0.45 m/s, 211° | 0 W/m² | - |
| 1777980138 | 22.78° C | 82% | 1004.6 hPa | 0 mm | 0.89 m/s, 250° | 0 W/m² | - |
| 1777979837 | 22.22° C | 83% | 1004.7 hPa | 0 mm | 0.45 m/s, 329° | 0 W/m² | - |
| 1777979534 | 22.22° C | 84% | 1004.3 hPa | 0 mm | 0.89 m/s, 191° | 0 W/m² | - |
| 1777979229 | 22.22° C | 84% | 1004.4 hPa | 0 mm | 0.45 m/s, 321° | 0 W/m² | - |
| 1777978927 | 22.22° C | 84% | 1004.5 hPa | 0 mm | 0.89 m/s, 37° | 0 W/m² | - |
| 1777978623 | 22.22° C | 84% | 1004.5 hPa | 0 mm | 0 m/s | 0 W/m² | - |
| 1777978319 | 22.22° C | 84% | 1004.4 hPa | 0 mm | 0 m/s | 0 W/m² | - |
| 1777978016 | 22.22° C | 84% | 1004.4 hPa | 0 mm | 0 m/s | 0 W/m² | - |
* Rain latest hour (hover to see other rain measurements)
** Current wind speed in m/s (hover to see current wind gust speed)